Time,TemperatureF,DewpointF,PressureIn,WindDirection,WindDirectionDegrees,WindSpeedMPH,WindSpeedGustMPH,Humidity,HourlyPrecipIn,Conditions,Clouds,dailyrainin,SoftwareType,DateUTC
2013-03-04 00:00:00,50.6,42.3,30.14,WSW,238,3.0,5.0,73,0.00,,,0.00,Wunderground v.1.15,2013-03-04 05:00:00,
2013-03-04 00:05:00,50.5,41.8,30.15,SW,215,3.0,5.0,72,0.00,,,0.00,Wunderground v.1.15,2013-03-04 05:05:00,
2013-03-04 00:10:00,50.4,41.3,30.15,SW,218,3.0,3.0,71,0.00,,,0.00,Wunderground v.1.15,2013-03-04 05:10:00,
2013-03-04 00:15:00,50.3,41.6,30.15,SW,235,3.0,4.0,72,0.00,,,0.00,Wunderground v.1.15,2013-03-04 05:15:00,
2013-03-04 00:25:00,50.1,41.4,30.14,NW,305,3.0,4.0,72,0.00,,,0.00,Wunderground v.1.15,2013-03-04 05:25:00,
2013-03-04 00:35:00,49.9,41.2,30.14,SW,235,2.0,8.0,72,0.00,,,0.00,Wunderground v.1.15,2013-03-04 05:35:00,
2013-03-04 00:45:00,49.7,41.0,30.14,NW,309,2.0,3.0,72,0.00,,,0.00,Wunderground v.1.15,2013-03-04 05:45:00,
2013-03-04 00:50:00,49.6,41.3,30.14,West,269,2.0,2.0,73,0.00,,,0.00,Wunderground v.1.15,2013-03-04 05:50:00,
2013-03-04 01:00:00,49.3,41.4,30.14,NNW,339,2.0,2.0,74,0.00,,,0.00,Wunderground v.1.15,2013-03-04 06:00:00,
2013-03-04 01:10:00,49.2,41.6,30.14,West,259,2.0,3.0,75,0.00,,,0.00,Wunderground v.1.15,2013-03-04 06:10:00,
2013-03-04 01:20:00,49.0,41.4,30.14,NW,317,2.0,4.0,75,0.00,,,0.00,Wunderground v.1.15,2013-03-04 06:20:00,
2013-03-04 01:29:00,48.8,41.6,30.14,WNW,293,2.0,7.0,76,0.00,,,0.00,Wunderground v.1.15,2013-03-04 06:29:00,
2013-03-04 01:35:00,48.6,41.4,30.14,WNW,287,2.0,7.0,76,0.00,,,0.00,Wunderground v.1.15,2013-03-04 06:35:00,
2013-03-04 01:45:00,48.3,41.4,30.14,SSW,200,1.0,1.0,77,0.00,,,0.00,Wunderground v.1.15,2013-03-04 06:45:00,
2013-03-04 01:55:00,48.0,41.1,30.14,WNW,284,1.0,3.0,77,0.00,,,0.00,Wunderground v.1.15,2013-03-04 06:55:00,
2013-03-04 02:00:00,48.0,41.1,30.14,NW,324,1.0,1.0,77,0.00,,,0.00,Wunderground v.1.15,2013-03-04 07:00:00,
2013-03-04 02:10:00,47.9,40.7,30.14,NW,319,2.0,2.0,76,0.00,,,0.00,Wunderground v.1.15,2013-03-04 07:10:00,
2013-03-04 02:20:00,47.9,40.7,30.14,North,6,2.0,2.0,76,0.00,,,0.00,Wunderground v.1.15,2013-03-04 07:20:00,
2013-03-04 02:30:00,47.8,40.3,30.13,NW,308,2.0,2.0,75,0.00,,,0.00,Wunderground v.1.15,2013-03-04 07:30:00,
2013-03-04 02:39:00,47.5,40.0,30.13,West,266,1.0,1.0,75,0.00,,,0.00,Wunderground v.1.15,2013-03-04 07:39:00,
2013-03-04 02:45:00,47.3,39.8,30.13,SSW,193,1.0,2.0,75,0.00,,,0.00,Wunderground v.1.15,2013-03-04 07:45:00,
2013-03-04 02:55:00,47.1,39.6,30.13,South,190,1.0,3.0,75,0.00,,,0.00,Wunderground v.1.15,2013-03-04 07:55:00,
2013-03-04 03:00:00,46.9,39.4,30.13,NW,308,1.0,3.0,75,0.00,,,0.00,Wunderground v.1.15,2013-03-04 08:00:00,
2013-03-04 03:10:00,46.8,39.3,30.13,NNW,345,2.0,3.0,75,0.00,,,0.00,Wunderground v.1.15,2013-03-04 08:10:00,
2013-03-04 03:20:00,46.6,39.4,30.13,NW,304,1.0,1.0,76,0.00,,,0.00,Wunderground v.1.15,2013-03-04 08:20:00,
2013-03-04 03:30:00,46.4,39.6,30.12,WNW,291,1.0,1.0,77,0.00,,,0.00,Wunderground v.1.15,2013-03-04 08:30:00,
2013-03-04 03:40:00,46.0,39.2,30.13,North,351,2.0,2.0,77,0.00,,,0.00,Wunderground v.1.15,2013-03-04 08:40:00,
2013-03-04 03:49:00,45.7,38.6,30.12,NW,305,2.0,2.0,76,0.00,,,0.00,Wunderground v.1.15,2013-03-04 08:49:00,
2013-03-04 03:55:00,45.6,38.5,30.13,WSW,257,2.0,2.0,76,0.00,,,0.00,Wunderground v.1.15,2013-03-04 08:55:00,
2013-03-04 04:00:00,45.6,38.1,30.13,WNW,284,2.0,2.0,75,0.00,,,0.00,Wunderground v.1.15,2013-03-04 09:00:00,
2013-03-04 04:10:00,45.4,37.9,30.13,NW,305,1.0,2.0,75,0.00,,,0.00,Wunderground v.1.15,2013-03-04 09:10:00,
2013-03-04 04:20:00,45.2,38.1,30.14,West,263,1.0,1.0,76,0.00,,,0.00,Wunderground v.1.15,2013-03-04 09:20:00,
2013-03-04 04:30:00,45.2,38.1,30.14,NW,310,2.0,3.0,76,0.00,,,0.00,Wunderground v.1.15,2013-03-04 09:30:00,
2013-03-04 04:40:00,45.2,38.1,30.15,NW,314,1.0,1.0,76,0.00,,,0.00,Wunderground v.1.15,2013-03-04 09:40:00,
2013-03-04 04:50:00,45.0,37.9,30.15,West,263,1.0,1.0,76,0.00,,,0.00,Wunderground v.1.15,2013-03-04 09:50:00,
2013-03-04 05:00:00,44.9,37.5,30.16,WNW,291,1.0,5.0,75,0.00,,,0.00,Wunderground v.1.15,2013-03-04 10:00:00,
2013-03-04 05:09:00,44.9,37.1,30.16,SW,232,2.0,2.0,74,0.00,,,0.00,Wunderground v.1.15,2013-03-04 10:09:00,
2013-03-04 05:15:00,44.9,36.8,30.16,WSW,253,1.0,2.0,73,0.00,,,0.00,Wunderground v.1.15,2013-03-04 10:15:00,
2013-03-04 05:25:00,44.8,36.7,30.17,WSW,238,1.0,3.0,73,0.00,,,0.00,Wunderground v.1.15,2013-03-04 10:25:00,
2013-03-04 05:34:00,44.7,36.6,30.17,West,266,2.0,2.0,73,0.00,,,0.00,Wunderground v.1.15,2013-03-04 10:34:00,
2013-03-04 05:40:00,44.7,36.6,30.17,West,274,1.0,1.0,73,0.00,,,0.00,Wunderground v.1.15,2013-03-04 10:40:00,
2013-03-04 05:50:00,44.5,36.7,30.17,North,356,1.0,1.0,74,0.00,,,0.00,Wunderground v.1.15,2013-03-04 10:50:00,
2013-03-04 06:00:00,44.4,36.3,30.17,WNW,294,2.0,2.0,73,0.00,,,0.00,Wunderground v.1.15,2013-03-04 11:00:00,
2013-03-04 06:10:00,44.4,36.6,30.17,West,266,1.0,1.0,74,0.00,,,0.00,Wunderground v.1.15,2013-03-04 11:10:00,
2013-03-04 06:15:00,44.3,36.5,30.18,NW,305,1.0,1.0,74,0.00,,,0.00,Wunderground v.1.15,2013-03-04 11:15:00,
2013-03-04 06:20:00,44.2,36.8,30.18,NW,308,1.0,3.0,75,0.00,,,0.00,Wunderground v.1.15,2013-03-04 11:20:00,
2013-03-04 06:30:00,44.1,36.7,30.18,WSW,240,1.0,1.0,75,0.00,,,0.00,Wunderground v.1.15,2013-03-04 11:30:00,
2013-03-04 06:40:00,44.0,36.9,30.18,NW,325,1.0,2.0,76,0.00,,,0.00,Wunderground v.1.15,2013-03-04 11:40:00,
2013-03-04 06:50:00,44.0,36.9,30.19,West,262,1.0,1.0,76,0.00,,,0.00,Wunderground v.1.15,2013-03-04 11:50:00,
2013-03-04 07:00:00,44.0,36.9,30.20,NW,305,1.0,2.0,76,0.00,,,0.00,Wunderground v.1.15,2013-03-04 12:00:00,
2013-03-04 07:10:00,44.5,37.1,30.20,WNW,294,1.0,1.0,75,0.00,,,0.00,Wunderground v.1.15,2013-03-04 12:10:00,
2013-03-04 07:20:00,45.7,37.5,30.20,West,281,1.0,1.0,73,0.00,,,0.00,Wunderground v.1.15,2013-03-04 12:20:00,
2013-03-04 07:30:00,46.7,37.8,30.21,NW,321,1.0,1.0,71,0.00,,,0.00,Wunderground v.1.15,2013-03-04 12:30:00,
2013-03-04 07:40:00,47.3,37.6,30.21,NW,307,2.0,2.0,69,0.00,,,0.00,Wunderground v.1.15,2013-03-04 12:40:00,
2013-03-04 07:50:00,48.0,37.9,30.21,NNW,328,2.0,2.0,68,0.00,,,0.00,Wunderground v.1.15,2013-03-04 12:50:00,
2013-03-04 08:00:00,49.2,38.7,30.21,NW,323,1.0,1.0,67,0.00,,,0.00,Wunderground v.1.15,2013-03-04 13:00:00,
2013-03-04 08:10:00,49.9,38.6,30.22,WSW,249,1.0,2.0,65,0.00,,,0.00,Wunderground v.1.15,2013-03-04 13:10:00,
2013-03-04 08:20:00,50.9,38.3,30.22,WNW,294,1.0,3.0,62,0.00,,,0.00,Wunderground v.1.15,2013-03-04 13:20:00,
2013-03-04 08:30:00,51.4,38.8,30.22,NW,310,2.0,2.0,62,0.00,,,0.00,Wunderground v.1.15,2013-03-04 13:30:00,
2013-03-04 08:40:00,51.9,38.9,30.22,NW,317,2.0,2.0,61,0.00,,,0.00,Wunderground v.1.15,2013-03-04 13:40:00,
2013-03-04 08:50:00,52.0,39.0,30.21,NNW,328,3.0,5.0,61,0.00,,,0.00,Wunderground v.1.15,2013-03-04 13:50:00,
2013-03-04 09:00:00,52.0,38.5,30.21,WNW,297,4.0,6.0,60,0.00,,,0.00,Wunderground v.1.15,2013-03-04 14:00:00,
2013-03-04 09:10:00,52.5,38.6,30.22,NNW,330,4.0,5.0,59,0.00,,,0.00,Wunderground v.1.15,2013-03-04 14:10:00,
2013-03-04 09:20:00,53.2,38.8,30.21,WNW,302,4.0,4.0,58,0.00,,,0.00,Wunderground v.1.15,2013-03-04 14:20:00,
2013-03-04 09:30:00,54.6,38.7,30.22,West,269,2.0,2.0,55,0.00,,,0.00,Wunderground v.1.15,2013-03-04 14:30:00,
2013-03-04 09:40:00,55.4,39.0,30.22,NW,321,2.0,5.0,54,0.00,,,0.00,Wunderground v.1.15,2013-03-04 14:40:00,
2013-03-04 09:50:00,55.6,38.7,30.21,NW,323,3.0,6.0,53,0.00,,,0.00,Wunderground v.1.15,2013-03-04 14:50:00,
2013-03-04 09:55:00,55.2,38.8,30.21,West,262,4.0,6.0,54,0.00,,,0.00,Wunderground v.1.15,2013-03-04 14:55:00,
2013-03-04 10:00:00,55.7,38.3,30.21,WNW,294,4.0,4.0,52,0.00,,,0.00,Wunderground v.1.15,2013-03-04 15:00:00,
2013-03-04 10:10:00,56.3,37.9,30.21,NW,314,3.0,8.0,50,0.00,,,0.00,Wunderground v.1.15,2013-03-04 15:10:00,
2013-03-04 10:20:00,57.1,38.6,30.21,NW,312,3.0,3.0,50,0.00,,,0.00,Wunderground v.1.15,2013-03-04 15:20:00,
2013-03-04 10:30:00,57.1,38.1,30.21,WNW,291,4.0,4.0,49,0.00,,,0.00,Wunderground v.1.15,2013-03-04 15:30:00,
2013-03-04 10:40:00,58.7,38.5,30.21,West,267,2.0,2.0,47,0.00,,,0.00,Wunderground v.1.15,2013-03-04 15:40:00,
2013-03-04 10:49:00,59.2,38.4,30.21,SE,145,2.0,2.0,46,0.00,,,0.00,Wunderground v.1.15,2013-03-04 15:49:00,
2013-03-04 10:55:00,59.9,39.1,30.21,NW,305,2.0,2.0,46,0.00,,,0.00,Wunderground v.1.15,2013-03-04 15:55:00,
2013-03-04 11:00:00,60.0,39.7,30.21,WSW,240,2.0,2.0,47,0.00,,,0.00,Wunderground v.1.15,2013-03-04 16:00:00,
2013-03-04 11:10:00,60.5,38.5,30.21,NNW,330,2.0,4.0,44,0.00,,,0.00,Wunderground v.1.15,2013-03-04 16:10:00,
2013-03-04 11:20:00,59.4,36.9,30.21,North,354,3.0,6.0,43,0.00,,,0.00,Wunderground v.1.15,2013-03-04 16:20:00,
2013-03-04 11:29:00,59.5,37.6,30.21,NNW,328,3.0,3.0,44,0.00,,,0.00,Wunderground v.1.15,2013-03-04 16:29:00,
2013-03-04 11:35:00,60.0,38.6,30.21,NW,314,2.0,3.0,45,0.00,,,0.00,Wunderground v.1.15,2013-03-04 16:35:00,
2013-03-04 11:45:00,59.4,37.5,30.20,SW,222,3.0,3.0,44,0.00,,,0.00,Wunderground v.1.15,2013-03-04 16:45:00,
2013-03-04 11:55:00,61.5,35.6,30.20,NW,309,1.0,2.0,38,0.00,,,0.00,Wunderground v.1.15,2013-03-04 16:55:00,
2013-03-04 12:00:00,61.0,36.5,30.20,NW,312,2.0,2.0,40,0.00,,,0.00,Wunderground v.1.15,2013-03-04 17:00:00,
2013-03-04 12:09:00,61.4,36.2,30.19,NNW,333,2.0,2.0,39,0.00,,,0.00,Wunderground v.1.15,2013-03-04 17:09:00,
2013-03-04 12:20:00,61.9,36.0,30.19,NW,318,2.0,3.0,38,0.00,,,0.00,Wunderground v.1.15,2013-03-04 17:20:00,
2013-03-04 12:30:00,63.2,37.2,30.18,NW,315,2.0,5.0,38,0.00,,,0.00,Wunderground v.1.15,2013-03-04 17:30:00,
2013-03-04 12:40:00,63.9,37.1,30.17,SW,224,2.0,2.0,37,0.00,,,0.00,Wunderground v.1.15,2013-03-04 17:40:00,
2013-03-04 12:49:00,64.2,39.4,30.16,NNW,335,2.0,2.0,40,0.00,,,0.00,Wunderground v.1.15,2013-03-04 17:49:00,
2013-03-04 12:55:00,63.4,37.3,30.16,NW,324,2.0,2.0,38,0.00,,,0.00,Wunderground v.1.15,2013-03-04 17:55:00,
2013-03-04 13:00:00,63.1,39.0,30.16,NE,37,3.0,3.0,41,0.00,,,0.00,Wunderground v.1.15,2013-03-04 18:00:00,
2013-03-04 13:10:00,62.6,37.9,30.16,NNE,25,2.0,3.0,40,0.00,,,0.00,Wunderground v.1.15,2013-03-04 18:10:00,
2013-03-04 13:15:00,62.7,39.3,30.16,NW,322,2.0,3.0,42,0.00,,,0.00,Wunderground v.1.15,2013-03-04 18:15:00,
2013-03-04 13:25:00,62.8,37.5,30.15,NNW,333,3.0,3.0,39,0.00,,,0.00,Wunderground v.1.15,2013-03-04 18:25:00,
2013-03-04 13:30:00,62.8,40.0,30.15,NNW,328,2.0,3.0,43,0.00,,,0.00,Wunderground v.1.15,2013-03-04 18:30:00,
2013-03-04 13:35:00,63.5,40.6,30.15,NNE,16,2.0,3.0,43,0.00,,,0.00,Wunderground v.1.15,2013-03-04 18:35:00,
2013-03-04 13:39:00,63.3,40.4,30.15,North,354,3.0,3.0,43,0.00,,,0.00,Wunderground v.1.15,2013-03-04 18:39:00,
2013-03-04 13:44:00,63.3,41.0,30.15,ENE,67,2.0,3.0,44,0.00,,,0.00,Wunderground v.1.15,2013-03-04 18:44:00,
2013-03-04 13:50:00,63.2,40.9,30.15,ESE,111,2.0,3.0,44,0.00,,,0.00,Wunderground v.1.15,2013-03-04 18:50:00,
2013-03-04 14:00:00,63.2,40.9,30.15,NNW,330,2.0,3.0,44,0.00,,,0.00,Wunderground v.1.15,2013-03-04 19:00:00,
2013-03-04 14:10:00,63.0,41.9,30.15,East,83,3.0,3.0,46,0.00,,,0.00,Wunderground v.1.15,2013-03-04 19:10:00,
2013-03-04 14:20:00,63.0,42.4,30.14,NW,305,3.0,3.0,47,0.00,,,0.00,Wunderground v.1.15,2013-03-04 19:20:00,
2013-03-04 14:30:00,63.5,41.8,30.14,NW,312,3.0,3.0,45,0.00,,,0.00,Wunderground v.1.15,2013-03-04 19:30:00,
2013-03-04 14:40:00,63.4,42.2,30.14,North,359,3.0,3.0,46,0.00,,,0.00,Wunderground v.1.15,2013-03-04 19:40:00,
2013-03-04 14:50:00,62.9,41.2,30.14,NW,316,3.0,5.0,45,0.00,,,0.00,Wunderground v.1.15,2013-03-04 19:50:00,
2013-03-04 15:00:00,63.3,41.6,30.14,NNW,340,3.0,3.0,45,0.00,,,0.00,Wunderground v.1.15,2013-03-04 20:00:00,
2013-03-04 15:10:00,63.6,42.4,30.14,North,8,2.0,3.0,46,0.00,,,0.00,Wunderground v.1.15,2013-03-04 20:10:00,
2013-03-04 15:20:00,63.6,42.4,30.14,NNE,12,3.0,3.0,46,0.00,,,0.00,Wunderground v.1.15,2013-03-04 20:20:00,
2013-03-04 15:30:00,63.8,43.2,30.14,North,349,2.0,3.0,47,0.00,,,0.00,Wunderground v.1.15,2013-03-04 20:30:00,
2013-03-04 15:35:00,63.4,42.2,30.13,NW,324,3.0,3.0,46,0.00,,,0.00,Wunderground v.1.15,2013-03-04 20:35:00,
2013-03-04 15:44:00,63.5,42.3,30.13,NW,319,3.0,4.0,46,0.00,,,0.00,Wunderground v.1.15,2013-03-04 20:44:00,
2013-03-04 15:49:00,63.6,43.0,30.13,NW,319,3.0,3.0,47,0.00,,,0.00,Wunderground v.1.15,2013-03-04 20:49:00,
2013-03-04 15:54:00,63.5,42.3,30.13,NW,308,2.0,4.0,46,0.00,,,0.00,Wunderground v.1.15,2013-03-04 20:54:00,
2013-03-04 16:00:00,63.6,42.4,30.13,NNW,328,3.0,4.0,46,0.00,,,0.00,Wunderground v.1.15,2013-03-04 21:00:00,
2013-03-04 16:10:00,63.7,42.5,30.13,North,9,3.0,3.0,46,0.00,,,0.00,Wunderground v.1.15,2013-03-04 21:10:00,
2013-03-04 16:20:00,63.8,43.2,30.13,East,86,3.0,3.0,47,0.00,,,0.00,Wunderground v.1.15,2013-03-04 21:20:00,
2013-03-04 16:25:00,63.9,43.3,30.13,NW,325,3.0,4.0,47,0.00,,,0.00,Wunderground v.1.15,2013-03-04 21:25:00,
2013-03-04 16:34:00,63.7,43.1,30.13,NW,314,4.0,4.0,47,0.00,,,0.00,Wunderground v.1.15,2013-03-04 21:34:00,
2013-03-04 16:45:00,63.7,44.2,30.13,NNW,335,3.0,5.0,49,0.00,,,0.00,Wunderground v.1.15,2013-03-04 21:45:00,
2013-03-04 16:55:00,63.6,44.6,30.13,NW,323,3.0,5.0,50,0.00,,,0.00,Wunderground v.1.15,2013-03-04 21:55:00,
2013-03-04 17:00:00,63.5,45.6,30.13,NNW,333,4.0,4.0,52,0.00,,,0.00,Wunderground v.1.15,2013-03-04 22:00:00,
2013-03-04 17:10:00,63.5,46.1,30.13,WNW,302,4.0,4.0,53,0.00,,,0.00,Wunderground v.1.15,2013-03-04 22:10:00,
2013-03-04 17:20:00,63.4,45.5,30.13,NW,323,3.0,3.0,52,0.00,,,0.00,Wunderground v.1.15,2013-03-04 22:20:00,
2013-03-04 17:29:00,63.4,45.5,30.13,NW,323,3.0,3.0,52,0.00,,,0.00,Wunderground v.1.15,2013-03-04 22:29:00,
2013-03-04 17:35:00,63.3,45.9,30.13,NE,47,3.0,3.0,53,0.00,,,0.00,Wunderground v.1.15,2013-03-04 22:35:00,
2013-03-04 17:45:00,63.2,45.8,30.14,NW,311,3.0,5.0,53,0.00,,,0.00,Wunderground v.1.15,2013-03-04 22:45:00,
2013-03-04 17:55:00,62.9,46.5,30.14,NW,321,4.0,4.0,55,0.00,,,0.00,Wunderground v.1.15,2013-03-04 22:55:00,
2013-03-04 18:00:00,62.9,46.5,30.14,NNE,22,3.0,5.0,55,0.00,,,0.00,Wunderground v.1.15,2013-03-04 23:00:00,
2013-03-04 18:10:00,62.6,46.2,30.14,NW,317,3.0,3.0,55,0.00,,,0.00,Wunderground v.1.15,2013-03-04 23:10:00,
2013-03-04 18:20:00,62.2,46.3,30.14,NW,315,2.0,2.0,56,0.00,,,0.00,Wunderground v.1.15,2013-03-04 23:20:00,
2013-03-04 18:25:00,62.0,46.1,30.15,NNW,330,3.0,3.0,56,0.00,,,0.00,Wunderground v.1.15,2013-03-04 23:25:00,
2013-03-04 18:34:00,61.8,45.9,30.15,NW,318,2.0,3.0,56,0.00,,,0.00,Wunderground v.1.15,2013-03-04 23:34:00,
2013-03-04 18:40:00,61.7,45.4,30.15,NW,316,2.0,2.0,55,0.00,,,0.00,Wunderground v.1.15,2013-03-04 23:40:00,
2013-03-04 18:45:00,61.5,45.2,30.15,NW,324,2.0,2.0,55,0.00,,,0.00,Wunderground v.1.15,2013-03-04 23:45:00,
2013-03-04 18:55:00,61.2,45.4,30.15,NNW,339,1.0,1.0,56,0.00,,,0.00,Wunderground v.1.15,2013-03-04 23:55:00,
2013-03-04 19:00:00,61.1,44.8,30.15,West,280,1.0,1.0,55,0.00,,,0.00,Wunderground v.1.15,2013-03-05 00:00:00,
2013-03-04 19:10:00,60.9,43.6,30.15,NW,316,1.0,1.0,53,0.00,,,0.00,Wunderground v.1.15,2013-03-05 00:10:00,
2013-03-04 19:19:00,61.0,44.7,30.15,NW,308,1.0,2.0,55,0.00,,,0.00,Wunderground v.1.15,2013-03-05 00:19:00,
2013-03-04 19:24:00,61.0,45.2,30.15,NW,319,1.0,2.0,56,0.00,,,0.00,Wunderground v.1.15,2013-03-05 00:24:00,
2013-03-04 19:30:00,60.7,45.4,30.15,WSW,249,1.0,1.0,57,0.00,,,0.00,Wunderground v.1.15,2013-03-05 00:30:00,
2013-03-04 19:35:00,60.4,45.1,30.16,WSW,249,0.0,1.0,57,0.00,,,0.00,Wunderground v.1.15,2013-03-05 00:35:00,
2013-03-04 19:45:00,59.7,45.3,30.16,WSW,249,0.0,0.0,59,0.00,,,0.00,Wunderground v.1.15,2013-03-05 00:45:00,
2013-03-04 19:54:00,58.5,45.1,30.16,WSW,249,0.0,0.0,61,0.00,,,0.00,Wunderground v.1.15,2013-03-05 00:54:00,
2013-03-04 20:00:00,58.0,45.5,30.16,WSW,249,0.0,0.0,63,0.00,,,0.00,Wunderground v.1.15,2013-03-05 01:00:00,
2013-03-04 20:09:00,57.8,45.7,30.17,WSW,249,0.0,0.0,64,0.00,,,0.00,Wunderground v.1.15,2013-03-05 01:09:00,
2013-03-04 20:15:00,57.5,45.8,30.17,WSW,248,0.0,0.0,65,0.00,,,0.00,Wunderground v.1.15,2013-03-05 01:15:00,
2013-03-04 20:25:00,56.9,45.3,30.17,WSW,249,0.0,0.0,65,0.00,,,0.00,Wunderground v.1.15,2013-03-05 01:25:00,
2013-03-04 20:35:00,56.3,44.7,30.17,WSW,249,0.0,0.0,65,0.00,,,0.00,Wunderground v.1.15,2013-03-05 01:35:00,
2013-03-04 20:44:00,56.2,44.6,30.18,WSW,249,0.0,0.0,65,0.00,,,0.00,Wunderground v.1.15,2013-03-05 01:44:00,
2013-03-04 20:50:00,56.1,44.9,30.18,WSW,249,0.0,0.0,66,0.00,,,0.00,Wunderground v.1.15,2013-03-05 01:50:00,
2013-03-04 21:00:00,56.1,44.5,30.18,WSW,249,0.0,0.0,65,0.00,,,0.00,Wunderground v.1.15,2013-03-05 02:00:00,
2013-03-04 21:10:00,56.3,43.9,30.18,WSW,249,0.0,0.0,63,0.00,,,0.00,Wunderground v.1.15,2013-03-05 02:10:00,
2013-03-04 21:20:00,56.1,43.7,30.18,WSW,249,0.0,0.0,63,0.00,,,0.00,Wunderground v.1.15,2013-03-05 02:20:00,
2013-03-04 21:30:00,56.0,45.6,30.18,WSW,249,0.0,0.0,68,0.00,,,0.00,Wunderground v.1.15,2013-03-05 02:30:00,
2013-03-04 21:39:00,55.7,46.1,30.18,WSW,249,0.0,0.0,70,0.00,,,0.00,Wunderground v.1.15,2013-03-05 02:39:00,
2013-03-04 21:45:00,55.7,45.3,30.19,WSW,248,0.0,0.0,68,0.00,,,0.00,Wunderground v.1.15,2013-03-05 02:45:00,
2013-03-04 21:54:00,55.7,45.7,30.19,WSW,248,0.0,0.0,69,0.00,,,0.00,Wunderground v.1.15,2013-03-05 02:54:00,
2013-03-04 22:00:00,55.3,45.3,30.18,WSW,249,0.0,0.0,69,0.00,,,0.00,Wunderground v.1.15,2013-03-05 03:00:00,
2013-03-04 22:10:00,55.2,46.3,30.18,WSW,249,0.0,0.0,72,0.00,,,0.00,Wunderground v.1.15,2013-03-05 03:10:00,
2013-03-04 22:15:00,55.0,46.5,30.18,WSW,248,0.0,0.0,73,0.00,,,0.00,Wunderground v.1.15,2013-03-05 03:15:00,
2013-03-04 22:20:00,54.9,46.8,30.18,WSW,249,0.0,0.0,74,0.00,,,0.00,Wunderground v.1.15,2013-03-05 03:20:00,
2013-03-04 22:30:00,54.3,45.8,30.18,WSW,249,0.0,0.0,73,0.00,,,0.00,Wunderground v.1.15,2013-03-05 03:30:00,
2013-03-04 22:40:00,54.2,46.4,30.18,WSW,249,0.0,0.0,75,0.00,,,0.00,Wunderground v.1.15,2013-03-05 03:40:00,
2013-03-04 22:49:00,54.0,46.3,30.18,WSW,249,0.0,0.0,75,0.00,,,0.00,Wunderground v.1.15,2013-03-05 03:49:00,
2013-03-04 23:00:00,53.4,45.7,30.17,WSW,249,0.0,0.0,75,0.00,,,0.00,Wunderground v.1.15,2013-03-05 04:00:00,
2013-03-04 23:10:00,53.6,46.6,30.17,WSW,249,0.0,0.0,77,0.00,,,0.00,Wunderground v.1.15,2013-03-05 04:10:00,
2013-03-04 23:20:00,53.6,46.6,30.17,WSW,249,0.0,0.0,77,0.00,,,0.00,Wunderground v.1.15,2013-03-05 04:20:00,
2013-03-04 23:25:00,53.6,46.2,30.17,WSW,249,0.0,0.0,76,0.00,,,0.00,Wunderground v.1.15,2013-03-05 04:25:00,
2013-03-04 23:34:00,53.7,46.3,30.17,SW,216,0.0,0.0,76,0.00,,,0.00,Wunderground v.1.15,2013-03-05 04:34:00,
2013-03-04 23:40:00,53.5,45.4,30.17,SW,224,0.0,0.0,74,0.00,,,0.00,Wunderground v.1.15,2013-03-05 04:40:00,
2013-03-04 23:49:00,53.4,45.3,30.17,SW,222,0.0,0.0,74,0.00,,,0.00,Wunderground v.1.15,2013-03-05 04:49:00,
2013-03-04 23:55:00,53.5,45.1,30.17,SW,222,0.0,0.0,73,0.00,,,0.00,Wunderground v.1.15,2013-03-05 04:55:00,